Flag for Macedonia, Republic of Weather past 2 weeks in Kumanovo, Macedonia, Republic of

66 °F


Feels Like: 66 °F
Forecast: 47 / 67 °F
Wind: No wind

Location: Skopje-Petrovec

Current Time: Oct 13, 2015 at 4:03:26 PM

Latest Report: Oct 13, 2015 at 3:30 PM

Visibility: 10 mi

Pressure: 30.09 "Hg

Humidity: 49%

Dew point: 46 °F

Location of KumanovoLocation

Historic Weather in Kumanovo — Graph


Kumanovo temperature yesterday

Maximum temperature yesterday: 64 °F (at 11:00 AM)
Minimum temperature yesterday: 52 °F (at 11:30 PM)
Average temperature yesterday: 59 °F

Past Weeks' High & Low Weather Summary

High79 °F (Oct 4, 2:30 PM)100% (Oct 3, 5:30 AM)30.39 "Hg (Oct 3, 5:30 AM)
Low43 °F (Oct 3, 5:30 AM)35% (Oct 2, 4:00 PM)29.62 "Hg (Oct 11, 1:30 PM)
Average60 °F77%30.08 "Hg
* Reported Sep 28 3:00 PM — Oct 13 3:00 PM, Kumanovo, Weather by CustomWeather, © 2015

Note: Actual official high and low records may vary slightly from our data, if they occured in-between our weather recording intervals... More about our weather records


Kumanovo weather history for previous 24 hours

Time TempWeatherWind HumidityBarometerVisibility
3:00 PM
Tue, Oct 13
66 °FSunny.No wind52%30.09 "Hg10 mi
2:30 PM64 °FSunny.No wind56%30.09 "Hg10 mi
2:00 PM64 °FSunny.No wind56%30.12 "Hg10 mi
1:30 PM64 °FSunny.2 mph56%30.12 "Hg10 mi
1:00 PM63 °FSunny.2 mph59%30.12 "Hg10 mi
12:30 PM63 °FSunny.2 mph59%30.12 "Hg10 mi
12:00 PM61 °FPassing clouds.2 mph63%30.15 "HgN/A
11:30 AM59 °FPassing clouds.3 mph68%30.15 "HgN/A
11:00 AM57 °FPassing clouds.3 mph72%30.15 "HgN/A
10:30 AM55 °FScattered clouds.2 mph77%30.15 "HgN/A
10:00 AM55 °FScattered clouds.2 mph72%30.15 "HgN/A
9:30 AM54 °FPartly sunny.7 mph77%30.15 "HgN/A
9:00 AM52 °FPartly sunny.5 mph82%30.15 "HgN/A
8:30 AM50 °FPartly sunny.5 mph82%30.15 "HgN/A
8:00 AM48 °FPartly sunny.6 mph87%30.15 "HgN/A
7:30 AM48 °FPassing clouds.8 mph87%30.15 "HgN/A
7:00 AM48 °FPassing clouds.9 mph82%30.12 "HgN/A
6:30 AM48 °FPassing clouds.2 mph82%30.12 "HgN/A
6:00 AM48 °FPassing clouds.5 mph82%30.12 "HgN/A
5:30 AM46 °FPassing clouds.2 mph93%30.12 "HgN/A
5:00 AM48 °FPassing clouds.5 mph82%30.12 "HgN/A
4:30 AM48 °FClear.5 mph87%30.12 "Hg10 mi
4:00 AM48 °FClear.7 mph87%30.12 "Hg10 mi
3:30 AM48 °FClear.9 mph87%30.09 "Hg10 mi
3:00 AM48 °FClear.9 mph87%30.12 "Hg10 mi
2:30 AM50 °FPassing clouds.9 mph82%30.12 "HgN/A
2:00 AM50 °FPassing clouds.7 mph88%30.12 "HgN/A
1:00 AM52 °FOvercast.No wind82%30.09 "HgN/A
12:30 AM52 °FPassing clouds.6 mph82%30.09 "HgN/A
12:00 AM52 °FOvercast.7 mph82%30.09 "HgN/A
11:30 PM
Mon, Oct 12
52 °FOvercast.8 mph82%30.09 "HgN/A
11:00 PM54 °FOvercast.10 mph77%30.09 "HgN/A
10:30 PM54 °FOvercast.10 mph77%30.09 "HgN/A
10:00 PM54 °FOvercast.12 mph77%30.09 "HgN/A
9:30 PM54 °FPassing clouds.15 mph77%30.07 "HgN/A
9:00 PM54 °FPassing clouds.13 mph77%30.07 "HgN/A
8:30 PM54 °FPassing clouds.13 mph77%30.07 "HgN/A
8:00 PM54 °FPassing clouds.14 mph77%30.07 "HgN/A
7:30 PM55 °FPassing clouds.16 mph72%30.04 "HgN/A
7:00 PM55 °FPartly cloudy.14 mph72%30.04 "HgN/A
6:30 PM55 °FBroken clouds.14 mph72%30.01 "HgN/A
6:00 PM59 °FBroken clouds.17 mph68%29.98 "HgN/A
5:30 PM59 °FBroken clouds.17 mph68%29.98 "HgN/A
5:00 PM59 °FBroken clouds.17 mph68%29.98 "HgN/A
4:30 PM59 °FBroken clouds.18 mph72%29.98 "HgN/A
4:00 PM63 °FBroken clouds.17 mph64%29.95 "HgN/A
Weather by CustomWeather, © 2015

See weather overviewHow to use our weather pages